Location: Kampung Segan
(3.1399°N, 113.1002°E)
Time: 12:58:52
(UTC+00:00)

MOS 1-B Rocket - Pass Details

Date: 19 October 2025
Orbit: 891 x 1603 km, 99.0° (Epoch: 16 November)

Event Time Altitude Azimuth Distance (km) Brightness Sun altitude
Rises 20:10:23 0° 12° (NNE) 4,642 7.6 -30.6°
Reaches altitude 10° 20:13:09 10° 12° (NNE) 3,716 7.0 -29.9°
Maximum altitude 20:22:12 88° 285° (WNW) 1,606 4.9 -27.7°
Drops below altitude 10° 20:31:24 10° 194° (SSW) 3,772 7.0 -25.4°
Sets 20:34:14 0° 194° (SSW) 4,714 7.5 -24.7°
